ECHOSTAR 18

导读

ECHOSTAR 18是美国EchoStar公司于2016年6月18日发射的高通量地球静止轨道通信卫星,隶属于EchoStar卫星星座。该卫星采用先进HTS技术,主要为北美地区提供高速卫星互联网接入、卫星电视广播、企业通信及政府与军事通信服务,依托稳定的GEO轨道,为偏远地区提供宽带连接,支撑HughesNet服务,进一步强化了EchoStar在全球卫星通信领域的服务能力。

基本信息
目录编号:
41592
目录名称:
ECHOSTAR 18
国际标识:
2016-039B
轨道中心:
EARTH
卫星名称:
ECHOSTAR 18
卫星全名:
--
卫星状态:
在轨 (已飞行3737 天)
发射日期:
2016-06-18 UTC
国别 :
美国 (US)
星等 :
--
该卫星已列入 空间交会检测服务 Space Conjunction Data Service (SCDS) ,当前飞行风险评估等级: 无高风险
轨道信息
数据来源 国际轨道数据 AOE轨道数据
星历时间 2026-09-11T13:06:36+0800
7小时前
查看轨道信息
2026-09-06T15:00:00+0800
5天前
查看轨道信息
半长轴 42164.672km 42165.429km
偏心率 0.0001595 0.0001582
轨道倾角 0.019° 0.017°
近地点辐角 23.804° 36.798°
升交点赤经 145.580° 140.510°
平近点角 196.136° 211.722°
近地点 35779.809km 35780.621km
远地点 35793.261km 35793.963km
周期 1436.094分钟 1436.132分钟
每日圈数 1.00272 1.002693
详细信息
使用方式:
暂无
2D轨道图
3D轨道图
轨道高度分析图
轨道倾角分析图
轨道综合分析图
查看轨道综合分析图
与全量物体交会距离演化趋势
与全量物体交会风险概率演化趋势